Location: Chandrammap?lem
(16.9200°N, 81.0051°E)
Time: 14:33:44
(UTC+00:00)

COSMOS 2428 - Pass Details

Date: 29 May 2024
Orbit: 844 x 856 km, 70.9° (Epoch: 18 June)

Event Time Altitude Azimuth Distance (km) Brightness Sun altitude
Rises 21:16:00 0° 356° (N) 3,402 6.3 -34.5°
Reaches altitude 10° 21:18:38 10° 4° (N) 2,467 5.6 -34.0°
Maximum altitude 21:23:50 37° 71° (ENE) 1,301 4.0 -33.1°
Enters shadow 21:26:54 21° 123° (ESE) 1,803 4.5 -32.5°
